Regional Weather Roundup
Issued by NWS

Home | Current Version | Previous Version | Text Only | Print | Product List | Glossary On
Versions: 1 2 3 4 5 6 7 8 9 10 11 12 13 14 15 16 17 18 19 20 21 22 23 24 25 26 27 28 29 30 31 32 33 34 35 36 37 38 39 40 41 42 43 44 45 46 47 48 49 50
000
ASUS43 KOAX 230410
RWRNE

WEATHER ROUNDUP FOR NEBRASKA
NATIONAL WEATHER SERVICE OMAHA NE
1100 PM CDT FRI AUG 22 2014

NOTES: SATELLITE DATA IS BEING USED TO AUGMENT CLOUD COVER ABOVE
       12000 FEET.
       "FAIR" INDICATES FEW OR NO CLOUDS BELOW 12,000 FEET WITH NO
       SIGNIFICANT WEATHER AND/OR OBSTRUCTIONS TO VISIBILITY.

  * THESE STATIONS DO NOT REPORT WEATHER SUCH AS RAIN...SNOW OR FOG.

NEZ001>004-019>022-054>056-230500-
NEBRASKA PANHANDLE

CITY           SKY/WX    TMP DP  RH WIND       PRES   REMARKS
SCOTTSBLUFF    CLOUDY    64  62  93 E12       30.01F
ALLIANCE       LGT RAIN  63  61  93 E5        30.01F
CHADRON        CLOUDY    70  57  63 S8        29.99F
KIMBALL        LGT RAIN  60  58  96 E8        30.03F
SIDNEY         LGT RAIN  62  59  90 NE8       30.05F
$$

NEZ057>060-069>072-079>082-230500-
SOUTHWEST NEBRASKA

CITY           SKY/WX    TMP DP  RH WIND       PRES   REMARKS
NORTH PLATTE   TSTM      66  64  93 NE16G26   29.96F FOG
IMPERIAL       LGT RAIN  69  66  90 E7        29.94F
LEXINGTON      CLOUDY    67  66  94 S9        29.94R
MCCOOK         CLOUDY    70  67  90 S6        29.95R
OGALLALA       CLOUDY    67  62  84 S10       30.01R
$$

NEZ005>010-023>029-035>040-094-230500-
NORTH CENTRAL NEBRASKA

CITY           SKY/WX    TMP DP  RH WIND       PRES   REMARKS
VALENTINE      CLOUDY    72  64  76 NE6       29.99F
AINSWORTH      CLOUDY    70  68  93 E5        29.98F
BROKEN BOW     TSTM      74  69  85 E15G22    29.95F
O`NEILL        CLOUDY    73  71  93 E9        29.96F
ORD            LGT RAIN  74  71  91 E7        29.90F
THEDFORD       CLOUDY    69  66  90 NE7       29.96F
$$

NEZ041-046>049-061>064-073>077-083>087-230500-
SOUTH CENTRAL NEBRASKA

CITY           SKY/WX    TMP DP  RH WIND       PRES   REMARKS
GRAND ISLAND   TSTM      67  67 100 S14       29.99R FOG
AURORA         TSTM      74  67  80 W28G43    30.00R
HASTINGS       TSTM      68  64  87 SW7       29.96F FOG
HEBRON         CLOUDY    77  70  80 CALM      29.94R
HOLDREGE       CLOUDY    68  65  92 SE14G21   29.96R
KEARNEY *      CLOUDY    66  64  94 E9        29.96R
YORK           CLOUDY    73 N/A N/A E3        29.94S
$$

NEZ011>018-030>034-042>045-230500-
NORTHEAST NEBRASKA

CITY           SKY/WX    TMP DP  RH WIND       PRES   REMARKS
NORFOLK        LGT RAIN  72  64  76 NE7       29.95F
ALBION         RAIN      74  71  91 NE10      29.95F
BLAIR          CLOUDY    74  72  93 N7        29.95R FOG
FREMONT        MOCLDY    74  71  88 NE3       29.95F
TEKAMAH        MOCLDY    72  70  93 CALM      29.94F
WAYNE            N/A     74  73  96 NW3       29.97S
$$

NEZ050>053-065>068-078-088>093-230500-
SOUTHEAST NEBRASKA

CITY           SKY/WX    TMP DP  RH WIND       PRES   REMARKS
LINCOLN        MOCLDY    77  72  84 NE9       29.94R
OMAHA EPPLEY   MOCLDY    76  73  91 N7        29.94S
BEATRICE       MOCLDY    76  73  91 E7        29.92R
FALLS CITY     CLOUDY    76  73  91 E6        29.91R
NEBRASKA CITY  MOCLDY    76  71  84 E3        29.93R
PLATTSMOUTH    PTCLDY    75  71  88 NE3       29.93R
$$

NEZ044-045-051>053-067-230500-
OMAHA AREA

CITY           SKY/WX    TMP DP  RH WIND       PRES   REMARKS
OMAHA EPPLEY   MOCLDY    76  73  91 N7        29.94S
BLAIR          CLOUDY    74  72  93 N7        29.95R FOG
FREMONT        MOCLDY    74  71  88 NE3       29.95F
MILLARD        PTCLDY    77  74  90 CALM      29.93R
OFFUTT AFB     PTCLDY    74  74 100 NE2       29.93R
PLATTSMOUTH    PTCLDY    75  71  88 NE3       29.93R
WAHOO          FAIR      73  70  91 CALM      29.94S FOG
$$


USA.gov is the U.S. government's official web portal to all federal, state and local government web resources and services.